Home > Weather > United Kingdom > Cardiff > Past weeks

Flag for United Kingdom Weather past 2 weeks in Cardiff, Wales, United Kingdom

54 °F


Feels Like: 49 °F
Forecast: N/A
Wind: 15 mph from Southwest

Location: Wales Airport

Current Time: Dec 1, 2015 at 3:06:14 PM

Latest Report: Dec 1, 2015 at 2:20 PM

Visibility: N/A

Pressure: 30.18 "Hg

Humidity: 82%

Dew point: 48 °F

Location of CardiffLocation

Historic Weather in Cardiff — Graph


Cardiff temperature yesterday

Maximum temperature yesterday: 54 °F (at 4:50 AM)
Minimum temperature yesterday: 46 °F (at 12:20 AM)
Average temperature yesterday: 53 °F

Past Weeks' High & Low Weather Summary

High59 °F (Nov 17, 12:50 PM)100% (Nov 17, 12:20 AM)30.30 "Hg (Nov 17, 12:20 AM)
Low30 °F (Nov 23, 7:20 AM)53% (Nov 21, 12:50 PM)29.50 "Hg (Nov 17, 12:50 PM)
Average49 °F87%29.92 "Hg
* Reported Nov 16 1:20 PM — Dec 1 1:50 PM, Cardiff, Weather by CustomWeather, © 2015

Note: Actual official high and low records may vary slightly from our data, if they occured in-between our weather recording intervals... More about our weather records


Cardiff weather history for previous 24 hours

Time TempWeatherWind HumidityBarometerVisibility
1:50 PM
Tue, Dec 1
55 °FOvercast.15 mph77%30.18 "HgN/A
1:20 PM55 °FOvercast.13 mph77%30.21 "HgN/A
12:50 PM55 °FOvercast.12 mph82%30.21 "HgN/A
12:20 PM55 °FPartly sunny.13 mph82%30.21 "HgN/A
11:50 AM55 °FScattered showers. Partly sunny.12 mph82%30.21 "HgN/A
11:20 AM55 °FOvercast.15 mph82%30.21 "HgN/A
10:50 AM55 °FMostly cloudy.13 mph82%30.21 "HgN/A
10:20 AM54 °FOvercast.13 mph94%30.21 "HgN/A
9:50 AM54 °FBroken clouds.14 mph94%30.21 "HgN/A
9:20 AM54 °FBroken clouds.14 mph94%30.18 "HgN/A
8:50 AM54 °FPartly sunny.15 mph94%30.18 "Hg6 mi
6:50 AM54 °FOvercast.17 mph94%30.18 "HgN/A
6:20 AM54 °FOvercast.17 mph94%30.18 "HgN/A
5:50 AM54 °FMostly cloudy.17 mph94%30.15 "HgN/A
5:20 AM54 °FLight rain. Low clouds.17 mph100%30.15 "Hg4 mi
4:50 AM54 °FDrizzle. Low clouds.21 mph100%30.15 "Hg2 mi
4:20 AM54 °FDrizzle. Low clouds.18 mph100%30.15 "Hg2 mi
3:50 AM54 °FDrizzle. Low clouds.20 mph100%30.12 "Hg2 mi
3:20 AM54 °FDrizzle. Low clouds.18 mph100%30.15 "Hg2 mi
2:50 AM54 °FDrizzle. Low clouds.16 mph100%30.12 "Hg2 mi
2:20 AM54 °FDrizzle. Low clouds.17 mph100%30.12 "Hg1 mi
1:50 AM54 °FDrizzle. Low clouds.18 mph100%30.12 "Hg1 mi
12:50 AM54 °FDrizzle. Low clouds.17 mph100%30.09 "Hg1 mi
11:50 PM
Mon, Nov 30
54 °FDrizzle. Low clouds.18 mph100%30.09 "Hg1 mi
11:20 PM54 °FDrizzle. Low clouds.20 mph100%30.07 "Hg1 mi
10:20 PM54 °FPassing clouds.20 mph100%30.07 "Hg2 mi
9:50 PM54 °FPassing clouds.21 mph100%30.04 "Hg2 mi
9:20 PM54 °FLight rain. Passing clouds.21 mph100%30.04 "Hg2 mi
8:50 PM54 °FLight rain. Passing clouds.21 mph100%30.04 "Hg2 mi
8:20 PM54 °FRain. Passing clouds.23 mph100%30.01 "Hg2 mi
7:50 PM54 °FRain. Passing clouds.24 mph100%29.98 "Hg2 mi
7:20 PM54 °FRain. Passing clouds.26 mph100%29.98 "Hg1 mi
6:50 PM54 °FRain. Low clouds.30 mph100%29.95 "Hg1 mi
6:20 PM54 °FHeavy rain. Low clouds.29 mph100%29.95 "Hg1 mi
5:50 PM54 °FRain. Fog.26 mph100%29.95 "Hg2 mi
5:20 PM54 °FHeavy rain. Low clouds.28 mph100%29.95 "Hg1 mi
4:50 PM54 °FDrizzle. Mostly cloudy.29 mph100%29.95 "Hg2 mi
4:20 PM54 °FRain showers. Fog.30 mph94%29.92 "Hg1 mi
3:50 PM54 °FHeavy rain. Low clouds.29 mph94%29.92 "Hg1 mi
3:20 PM54 °FRain. Fog.31 mph94%29.92 "Hg2 mi
Weather by CustomWeather, © 2015

See weather overviewHow to use our weather pages